Weather History for Springfield, MO

Change the Weather History Date:

Sunday, September 29, 2013

  Actual Average Record
Temperature  
Mean Temperature 64 °F 63 °F  
Max Temperature 74 °F 75 °F 98 °F (1953)
Min Temperature 54 °F 52 °F 33 °F (1967)
Degree Days  
Heating Degree Days 1 4  
Month to date heating degree days 14 48  
Since 1 July heating degree days 14 50  
Cooling Degree Days 0 3  
Month to date cooling degree days 229 170  
Year to date cooling degree days 1372 1356  
Growing Degree Days 14 (Base 50)    
Moisture  
Dew Point 54 °F    
Average Humidity 72    
Maximum Humidity 100    
Minimum Humidity 44    
Precipitation  
Precipitation 0.00 in 0.14 in 2.80 in (1986)
Month to date precipitation 2.18 4.47  
Year to date precipitation 40.33 34.58  
Snow  
Snow 0.00 in - - ()
Month to date snowfall 0.0  
Since 1 July snowfall 0.0  
Since 1 September snowfall 0.0  
Snow Depth 0.00 in    
Sea Level Pressure  
Sea Level Pressure 30.03 in    
Wind  
Wind Speed 7 mph (NNE)    
Max Wind Speed 14 mph    
Max Gust Speed 17 mph    
Visibility 9 miles    
Events      
T = Trace of Precipitation, MM = Missing Value Source: NWS Daily Summary

Daily Weather History Graph

Daily Weather History Graph

Search for Another Location

Airport:

Trip Planner

Search our weather history database for the weather conditions in past years. The results will help you decide how hot, cold, wet, or windy it might be!

Date:

Astronomy

Sep. 29, 2013 Rise Set
Actual Time 7:07 AM CDT 6:59 PM CDT
Civil Twilight 6:41 AM CDT 7:25 PM CDT
Nautical Twilight 6:11 AM CDT 7:55 PM CDT
Astronomical Twilight 5:40 AM CDT 8:25 PM CDT
Moon 1:55 AM CDT (9/29) 3:50 PM CDT (9/29)
Length of Visible Light 12h 43m
Length of Day
11h 51m
Waning Crescent, 27% of the Moon is Illuminated
Sep 29
Waning Crescent
Oct 4
New
Oct 11
First Quarter
Oct 18
Full
Oct 26
Last Quarter

Hourly Weather History & Observations

Time (CDT) Temp. Dew Point Humidity Pressure Visibility Wind Dir Wind Speed Gust Speed Precip Events Conditions
12:00 AM 60.1 °F 59.0 °F 96% 30.07 in 3.0 mi North 10.4 mph - 0.01 in   Overcast
12:13 AM 60.1 °F 59.0 °F 96% 30.07 in 4.0 mi North 11.5 mph - 0.02 in   Overcast
12:22 AM 60.1 °F 57.9 °F 93% 30.07 in 5.0 mi North 8.1 mph - 0.03 in   Overcast
12:52 AM 59.0 °F 57.0 °F 93% 30.05 in 6.0 mi North 10.4 mph - 0.04 in   Overcast
1:09 AM 59.0 °F 57.0 °F 93% 30.07 in 5.0 mi North 11.5 mph - N/A   Overcast
1:52 AM 59.0 °F 57.0 °F 93% 30.06 in 10.0 mi North 8.1 mph - N/A   Overcast
2:52 AM 57.9 °F 55.9 °F 93% 30.05 in 10.0 mi North 6.9 mph - N/A   Scattered Clouds
3:52 AM 57.0 °F 55.9 °F 96% 30.04 in 10.0 mi North 8.1 mph - N/A   Clear
4:17 AM 55.9 °F 55.0 °F 97% 30.06 in 10.0 mi North 3.5 mph - N/A   Scattered Clouds
4:27 AM 55.9 °F 55.0 °F 97% 30.06 in 10.0 mi Calm Calm - N/A   Mostly Cloudy
4:52 AM 57.0 °F 55.0 °F 93% 30.04 in 10.0 mi North 8.1 mph - N/A   Overcast
5:02 AM 57.0 °F 55.0 °F 93% 30.06 in 10.0 mi North 9.2 mph - N/A   Overcast
5:37 AM 57.0 °F 55.0 °F 93% 30.07 in 10.0 mi North 6.9 mph - N/A   Overcast
5:52 AM 55.9 °F 55.0 °F 97% 30.06 in 10.0 mi North 8.1 mph - N/A   Overcast
6:35 AM 55.9 °F 54.0 °F 93% 30.09 in 10.0 mi North 8.1 mph - N/A   Mostly Cloudy
6:49 AM 55.4 °F 53.6 °F 94% 30.09 in 10.0 mi NNE 8.1 mph - N/A   Partly Cloudy
6:52 AM 55.0 °F 54.0 °F 96% 30.07 in 10.0 mi NNE 9.2 mph - N/A   Partly Cloudy
7:52 AM 55.0 °F 53.1 °F 93% 30.07 in 10.0 mi North 6.9 mph - N/A   Clear
8:52 AM 57.9 °F 54.0 °F 87% 30.08 in 10.0 mi NE 8.1 mph - N/A   Clear
9:52 AM 61.0 °F 53.1 °F 75% 30.08 in 10.0 mi ENE 8.1 mph - N/A   Clear
10:52 AM 64.9 °F 53.1 °F 65% 30.07 in 10.0 mi NE 12.7 mph - N/A   Clear
11:52 AM 66.9 °F 54.0 °F 63% 30.06 in 10.0 mi NNE 8.1 mph - N/A   Clear
12:52 PM 69.1 °F 53.1 °F 57% 30.04 in 10.0 mi NE 3.5 mph - N/A   Clear
1:52 PM 71.1 °F 51.1 °F 49% 30.01 in 10.0 mi North 6.9 mph - N/A   Clear
2:52 PM 72.0 °F 51.1 °F 48% 29.98 in 10.0 mi North - - N/A   Clear
3:06 PM 73.0 °F 50.0 °F 44% 30.00 in 10.0 mi NE 9.2 mph - N/A   Clear
3:52 PM 73.9 °F 51.1 °F 45% 29.97 in 10.0 mi NNE 10.4 mph - N/A   Clear
4:52 PM 73.9 °F 50.0 °F 43% 29.96 in 10.0 mi NE 9.2 mph - N/A   Clear
5:52 PM 72.0 °F 50.0 °F 46% 29.95 in 10.0 mi ENE 6.9 mph - N/A   Clear
6:52 PM 68.0 °F 52.0 °F 56% 29.96 in 10.0 mi ENE 6.9 mph - N/A   Clear
7:52 PM 66.0 °F 52.0 °F 60% 29.96 in 10.0 mi ENE 6.9 mph - N/A   Clear
8:52 PM 64.0 °F 52.0 °F 65% 29.97 in 10.0 mi ENE 6.9 mph - N/A   Clear
9:52 PM 61.0 °F 53.1 °F 75% 29.96 in 10.0 mi East 5.8 mph - N/A   Clear
10:52 PM 60.1 °F 52.0 °F 75% 29.96 in 10.0 mi Calm Calm - N/A   Clear
11:52 PM 59.0 °F 52.0 °F 78% 29.96 in 10.0 mi SE 4.6 mph - N/A   Clear